Belize, Belize

2:54 AM CST on July 24, 2017 (GMT -0600)
Philip S W Goldson International

Weather History for MZBZ - April, 2013

Change the Weather History Date:

Wednesday, April 3, 2013

  Actual Average Record
Temperature  
Mean Temperature 83 °F -  
Max Temperature 88 °F 87 °F 93 °F (2009)
Min Temperature 78 °F 73 °F 66 °F (2005)
Cooling Degree Days 18    
Growing Degree Days 33 (Base 50)    
Moisture  
Dew Point 74 °F    
Average Humidity 74    
Maximum Humidity 89    
Minimum Humidity 57    
Precipitation  
Precipitation 0.00 in 0.08 in - ()
Sea Level Pressure  
Sea Level Pressure 29.85 in    
Wind  
Wind Speed 9 mph ()    
Max Wind Speed 14 mph    
Max Gust Speed 22 mph    
Visibility 8.5 miles    
Events      
Averages and records for this station are not official NWS values.
T = Trace of Precipitation, MM = Missing Value Source: Averaged Metar Reports

Daily Weather History Graph

Daily Weather History Graph

Search for Another Location

Airport or City:

Trip Planner

Search our weather history database for the weather conditions in past years. The results will help you decide how hot, cold, wet, or windy it might be!

Date:

Astronomy

Apr. 03, 2013 Rise Set
Actual Time 5:45 AM CST 6:06 PM CST
Civil Twilight 5:24 AM CST 6:28 PM CST
Nautical Twilight 4:58 AM CST 6:54 PM CST
Astronomical Twilight 4:33 AM CST 7:19 PM CST
Moon 12:32 AM CST (4/3) 12:11 PM CST (4/3)
Length of Visible Light 13h 04m
Length of Day
12h 21m
Last Quarter, 44% of the Moon is Illuminated
Apr 3
Last Quarter
Apr 10
New
Apr 18
First Quarter
Apr 25
Full
May 2
Last Quarter

Hourly Weather History & Observations

Time (CST) Temp. Heat Index Dew Point Humidity Pressure Visibility Wind Dir Wind Speed Gust Speed Precip Events Conditions
12:00 AM 80 °F - 75 °F 79% 29.93 in 12 mi ESE 6.9 mph - -   Mostly Cloudy
3:00 AM 79 °F - 74 °F 81% 29.86 in 12 mi ESE 11.5 mph - -   Scattered Clouds
5:00 AM 78.8 °F - 75.2 °F 89% 29.86 in 6.2 mi ESE 11.5 mph - N/A   Partly Cloudy
6:00 AM 78 °F - 74 °F 86% 29.88 in 12 mi ESE 11.5 mph - -   Partly Cloudy
6:00 AM 78.8 °F - 75.2 °F 89% 29.87 in 6.2 mi ESE 11.5 mph - N/A   Scattered Clouds
7:00 AM 80.6 °F 86.2 °F 75.2 °F 84% 29.88 in 6.2 mi SE 11.5 mph - N/A   Scattered Clouds
8:00 AM 82.4 °F 89.5 °F 75.2 °F 79% 29.90 in 6.2 mi SE 13.8 mph - N/A   Mostly Cloudy
9:00 AM 83 °F - 75 °F 71% 29.91 in 12 mi SE 10.4 mph - -   Mostly Cloudy
9:00 AM 87.8 °F 95.6 °F 73.4 °F 62% 29.79 in 6.2 mi SE 9.2 mph - N/A   Partly Cloudy
10:00 AM 86.0 °F 95.1 °F 75.2 °F 70% 29.90 in 5.6 mi SE 10.4 mph - N/A   Scattered Clouds
11:00 AM 86.0 °F 95.1 °F 75.2 °F 70% 29.89 in 6.2 mi SE 11.5 mph - N/A   Scattered Clouds
12:00 PM 86 °F - 74 °F 59% 29.87 in 16 mi SE 10.4 mph - -   Scattered Clouds
12:00 PM 86.0 °F 93.4 °F 73.4 °F 66% 29.86 in 6.2 mi SE 10.4 mph 21.9 mph N/A   Partly Cloudy
1:00 PM 87.8 °F 97.6 °F 75.2 °F 66% 29.83 in 6.2 mi SE 9.2 mph - N/A   Partly Cloudy
2:00 PM 87.8 °F 95.6 °F 73.4 °F 62% 29.81 in 6.2 mi ESE 9.2 mph - N/A   Partly Cloudy
3:00 PM 87 °F - 74 °F 57% 29.80 in 16 mi SE 9.2 mph - -   Scattered Clouds
3:00 PM 87.8 °F 95.6 °F 73.4 °F 62% 29.79 in 6.2 mi SE 9.2 mph - N/A   Partly Cloudy
4:00 PM 86.0 °F 93.4 °F 73.4 °F 66% 29.77 in 6.2 mi ESE 10.4 mph - N/A   Partly Cloudy
5:00 PM 84.2 °F 90.9 °F 73.4 °F 70% 29.78 in 6.2 mi ESE 9.2 mph - N/A   Partly Cloudy
6:00 PM 81 °F - 74 °F 74% 29.80 in 12 mi ESE 5.8 mph - -   Scattered Clouds
6:00 PM 80.6 °F 85.4 °F 73.4 °F 79% 29.80 in 6.2 mi ESE 5.8 mph - N/A   Partly Cloudy
7:00 PM 78.8 °F - 75.2 °F 89% 29.81 in 6.2 mi ESE 4.6 mph - N/A   Partly Cloudy
9:00 PM 78 °F - 75 °F 89% 29.86 in 12 mi ESE 3.5 mph - -   Scattered Clouds